[[{"header":{"parameterUnit":"m.s-1","parameterCategory":2,"la1":30.2992,"la2":30.254,"lo1":-89.0895,"lo2":-89.0443,"dy":0.0025,"dx":0.0025,"nx":19,"ny":19,"refTime":"2026-03-17T09:00:00:Z","depth":"0","parameterNumber":2,"parameterNumberName":"U-component_of_CURRENTS"},"data":[0,0,0,-0.1297,-0.1297,-0.1303,-0.1303,-0.1333,-0.1334,0,0,0,0,0,0,0,0,0,0,0,-0.1293,-0.1293,-0.1297,-0.1297,-0.1303,-0.1303,-0.1333,-0.1334,0,0,0,0,0,0,0,0,0,0,0,-0.1293,-0.1293,-0.1293,-0.1297,-0.1303,-0.1303,-0.1333,-0.1323,0,0,0,0,0,0,0,0,0,0,-0.1315,-0.1305,-0.1293,-0.1293,-0.1297,-0.1303,-0.1303,-0.1322,-0.1324,-0.1337,0,-0.1336,0,-0.1338,-0.1336,-0.1336,0,0,0,-0.1297,-0.1303,-0.1308,-0.1293,-0.1297,-0.1303,-0.13,-0.1323,-0.1324,-0.1339,-0.1337,-0.1338,-0.1338,-0.1337,-0.1337,-0.1374,-0.1374,0,0,-0.1296,-0.1292,-0.1307,-0.1309,-0.1297,-0.13,-0.13,-0.1324,-0.1323,-0.1337,-0.1339,-0.1339,-0.1337,-0.1337,-0.1373,-0.1374,0,0,0,-0.1296,-0.1292,-0.1295,-0.1308,-0.1308,-0.13,-0.13,-0.1322,-0.1324,-0.1339,-0.1339,-0.1337,-0.1337,-0.1373,-0.1374,-0.1362,0,0,0,-0.1295,-0.1291,-0.1295,-0.1292,-0.1308,-0.1311,-0.1298,-0.1322,-0.1325,-0.1339,-0.1337,-0.1338,-0.1373,-0.1373,-0.1362,-0.1349,0,0,0,-0.1293,-0.1291,-0.1292,-0.1292,-0.1295,-0.1311,-0.1314,-0.1323,-0.1325,-0.1336,-0.1338,-0.1373,-0.1373,-0.1362,-0.135,-0.1337,0,0,0,-0.1288,-0.1291,-0.1291,-0.1299,-0.1295,-0.1313,-0.1314,-0.1326,-0.1336,-0.1337,-0.1373,-0.1374,-0.1362,-0.135,-0.1338,-0.1267,-0.126,0,0,-0.1291,-0.1291,-0.1298,-0.1299,-0.1312,-0.1312,-0.1326,-0.1337,-0.1345,-0.1367,-0.1368,-0.1362,-0.135,-0.1337,-0.1283,-0.1275,0,0,0,-0.1299,-0.1299,-0.1306,-0.1311,-0.1326,-0.1328,-0.134,-0.1344,-0.1355,-0.1352,-0.1371,-0.1363,-0.1356,-0.1315,-0.1309,-0.1237,-0.1375,-0.1375,-0.1375,-0.1287,-0.1298,-0.1304,-0.1316,-0.1327,-0.1341,-0.1344,-0.1351,-0.1364,-0.1366,-0.1361,-0.1352,-0.1309,-0.1304,-0.1232,-0.1373,-0.1373,-0.1373,-0.1373,-0.1279,-0.1276,-0.1292,-0.1298,-0.1311,-0.1322,-0.1342,-0.1346,-0.1349,-0.136,-0.1354,-0.1313,-0.1296,-0.1221,-0.1373,-0.1373,-0.1373,-0.1373,-0.1373,-0.1257,-0.1255,-0.1263,-0.1268,-0.1276,-0.1298,-0.1294,-0.1317,-0.1332,-0.1329,-0.1281,-0.128,-0.1208,-0.1325,-0.1324,-0.1324,-0.1324,-0.1324,-0.1324,-0.1224,-0.1233,-0.122,-0.1234,-0.1229,-0.1237,-0.1263,-0.1264,-0.1258,-0.1257,-0.1257,-0.119,-0.1337,-0.1331,-0.1322,-0.1323,-0.1323,-0.1323,-0.1323,-0.1175,-0.1185,-0.1163,-0.1155,-0.1149,-0.1114,-0.1171,-0.1152,-0.1166,-0.1143,-0.1082,-0.1219,-0.1212,-0.1217,-0.1208,-0.1168,-0.1168,-0.1168,-0.1168,-0.1132,-0.1141,-0.1094,-0.1066,-0.105,-0.1048,-0.0978,-0.0988,-0.0982,-0.0953,-0.0979,-0.0966,-0.0975,-0.0955,-0.0965,-0.0952,-0.0848,-0.0847,-0.0847,-0.1083,-0.1081,-0.1025,-0.1013,-0.099,-0.0953,-0.0851,-0.079,-0.0798,-0.083,-0.0893,-0.0907,-0.0886,-0.0907,-0.0878,-0.0898,-0.0878,0,0]},{"header":{"parameterUnit":"m.s-1","parameterCategory":2,"la1":30.2992,"la2":30.254,"lo1":-89.0895,"lo2":-89.0443,"dy":0.0025,"dx":0.0025,"nx":19,"ny":19,"refTime":"2026-03-17T09:00:00:Z","depth":"0","parameterNumber":3,"parameterNumberName":"V-component_of_CURRENTS"},"data":[0,0,0,-0.0525,-0.0525,-0.0515,-0.0515,-0.0489,-0.0489,0,0,0,0,0,0,0,0,0,0,0,-0.0525,-0.0525,-0.0525,-0.0525,-0.0515,-0.0515,-0.0489,-0.0489,0,0,0,0,0,0,0,0,0,0,0,-0.0525,-0.0525,-0.0526,-0.0525,-0.0516,-0.0515,-0.0489,-0.0498,0,0,0,0,0,0,0,0,0,0,-0.0508,-0.0513,-0.0525,-0.0526,-0.0525,-0.0516,-0.0515,-0.0499,-0.0498,-0.0491,0,-0.0492,0,-0.0493,-0.0487,-0.0487,0,0,0,-0.0518,-0.0514,-0.0513,-0.0526,-0.0525,-0.0516,-0.0518,-0.0498,-0.0497,-0.0489,-0.0492,-0.0491,-0.0493,-0.0487,-0.0487,-0.0481,-0.0481,0,0,-0.0519,-0.052,-0.0514,-0.0513,-0.0526,-0.0518,-0.0518,-0.0497,-0.0496,-0.0492,-0.0491,-0.0492,-0.0487,-0.0487,-0.0481,-0.0481,0,0,0,-0.0524,-0.0521,-0.0521,-0.0514,-0.0515,-0.0518,-0.0517,-0.0497,-0.0498,-0.049,-0.0492,-0.0487,-0.0487,-0.0481,-0.0481,-0.0515,0,0,0,-0.0524,-0.0524,-0.0521,-0.0521,-0.0516,-0.0508,-0.0517,-0.0499,-0.0497,-0.0492,-0.0487,-0.0486,-0.0481,-0.0481,-0.0514,-0.0533,0,0,0,-0.0525,-0.0524,-0.0525,-0.0522,-0.0521,-0.0508,-0.0508,-0.0498,-0.0498,-0.0487,-0.0486,-0.0481,-0.0481,-0.0513,-0.0531,-0.0541,0,0,0,-0.0524,-0.0532,-0.0525,-0.0536,-0.0521,-0.0528,-0.0508,-0.0508,-0.0501,-0.0487,-0.0481,-0.0481,-0.0512,-0.0529,-0.054,-0.056,-0.0567,0,0,-0.0536,-0.0534,-0.0541,-0.0535,-0.0552,-0.0528,-0.0539,-0.0521,-0.0502,-0.0485,-0.0485,-0.0514,-0.0531,-0.054,-0.0575,-0.0581,0,0,0,-0.0546,-0.0553,-0.0556,-0.0564,-0.0563,-0.0563,-0.0544,-0.0533,-0.0519,-0.05,-0.051,-0.0519,-0.0524,-0.0534,-0.0539,-0.0583,-0.0482,-0.0482,-0.0482,-0.056,-0.0567,-0.0585,-0.0592,-0.0595,-0.0585,-0.0582,-0.0562,-0.0539,-0.0538,-0.0543,-0.057,-0.0581,-0.0585,-0.063,-0.0537,-0.0537,-0.0537,-0.0537,-0.0588,-0.0604,-0.061,-0.063,-0.063,-0.0633,-0.0617,-0.0602,-0.0592,-0.0569,-0.0572,-0.0565,-0.0593,-0.0639,-0.054,-0.0539,-0.0539,-0.0539,-0.0539,-0.0606,-0.0616,-0.0627,-0.0656,-0.067,-0.0664,-0.0676,-0.0654,-0.0626,-0.0631,-0.0628,-0.0627,-0.0669,-0.0628,-0.0629,-0.0629,-0.0629,-0.0629,-0.0629,-0.062,-0.0633,-0.0659,-0.0684,-0.0702,-0.0716,-0.0711,-0.0708,-0.0691,-0.0669,-0.0668,-0.0688,-0.0598,-0.0597,-0.0631,-0.0631,-0.063,-0.063,-0.063,-0.0646,-0.0651,-0.0689,-0.0713,-0.0755,-0.0779,-0.0774,-0.077,-0.0757,-0.0752,-0.0762,-0.0683,-0.0673,-0.0668,-0.0669,-0.0719,-0.0719,-0.0719,-0.0719,-0.066,-0.0668,-0.0716,-0.0757,-0.0797,-0.081,-0.0843,-0.0837,-0.0826,-0.0829,-0.0824,-0.0817,-0.0812,-0.0809,-0.0801,-0.0804,-0.0887,-0.0888,-0.0888,-0.0675,-0.0688,-0.0725,-0.0768,-0.0818,-0.0841,-0.0873,-0.0901,-0.0896,-0.0899,-0.0884,-0.0877,-0.0869,-0.0856,-0.085,-0.0836,-0.0838,0,0]}],[{"header":{"parameterUnit":"m.s-1","parameterCategory":2,"la1":30.2992,"la2":30.254,"lo1":-89.0895,"lo2":-89.0443,"dy":0.0025,"dx":0.0025,"nx":19,"ny":19,"refTime":"2026-03-17T09:00:00:Z","depth":"2","parameterNumber":2,"parameterNumberName":"U-component_of_CURRENTS"},"data":[0,0,0,-0.1276,-0.1276,-0.1283,-0.1283,-0.1314,-0.1315,0,0,0,0,0,0,0,0,0,0,0,-0.1271,-0.1271,-0.1276,-0.1276,-0.1283,-0.1283,-0.1314,-0.1315,0,0,0,0,0,0,0,0,0,0,0,-0.1271,-0.1271,-0.1271,-0.1276,-0.1283,-0.1283,-0.1314,-0.1303,0,0,0,0,0,0,0,0,0,0,-0.1293,-0.1284,-0.1271,-0.1271,-0.1276,-0.1283,-0.1283,-0.1303,-0.1304,-0.1317,0,-0.1316,0,-0.1318,-0.1317,-0.1317,0,0,0,-0.1276,-0.1282,-0.1287,-0.1271,-0.1276,-0.1283,-0.128,-0.1303,-0.1305,-0.1319,-0.1317,-0.1318,-0.1318,-0.1318,-0.1318,-0.1353,-0.1354,0,0,-0.1275,-0.1271,-0.1286,-0.1288,-0.1276,-0.128,-0.128,-0.1304,-0.1304,-0.1317,-0.1319,-0.1319,-0.1318,-0.1318,-0.1353,-0.1353,0,0,0,-0.1274,-0.1271,-0.1275,-0.1287,-0.1288,-0.128,-0.128,-0.1303,-0.1305,-0.1319,-0.1319,-0.1318,-0.1318,-0.1353,-0.1353,-0.1343,0,0,0,-0.1274,-0.127,-0.1274,-0.1272,-0.1287,-0.1292,-0.1279,-0.1303,-0.1306,-0.1319,-0.1318,-0.1319,-0.1353,-0.1353,-0.1343,-0.133,0,0,0,-0.1271,-0.127,-0.1271,-0.1271,-0.1275,-0.1291,-0.1294,-0.1303,-0.1306,-0.1317,-0.1319,-0.1353,-0.1353,-0.1343,-0.1331,-0.132,0,0,0,-0.1267,-0.127,-0.127,-0.1278,-0.1275,-0.1292,-0.1294,-0.1307,-0.1317,-0.1318,-0.1353,-0.1353,-0.1343,-0.1331,-0.132,-0.1246,-0.1239,0,0,-0.127,-0.127,-0.1276,-0.1277,-0.129,-0.1291,-0.1305,-0.1317,-0.1325,-0.1347,-0.1347,-0.1343,-0.1331,-0.132,-0.1261,-0.1252,0,0,0,-0.1277,-0.1276,-0.1283,-0.1288,-0.1303,-0.1306,-0.1319,-0.1323,-0.1335,-0.1332,-0.1351,-0.1344,-0.1337,-0.1294,-0.1287,-0.1355,-0.1355,-0.1355,-0.1354,-0.1265,-0.1276,-0.1281,-0.1292,-0.1304,-0.1318,-0.1322,-0.133,-0.1343,-0.1345,-0.1342,-0.1334,-0.1288,-0.1283,-0.1353,-0.1353,-0.1353,-0.1353,-0.1353,-0.1257,-0.1253,-0.1269,-0.1275,-0.1288,-0.1299,-0.132,-0.1325,-0.133,-0.1341,-0.1335,-0.1293,-0.1274,-0.1353,-0.1353,-0.1353,-0.1353,-0.1353,-0.1353,-0.1236,-0.1233,-0.1241,-0.1246,-0.1254,-0.1277,-0.1274,-0.1298,-0.1313,-0.1311,-0.1262,-0.1261,-0.1316,-0.1308,-0.1308,-0.1308,-0.1308,-0.1308,-0.1307,-0.1203,-0.1212,-0.12,-0.1214,-0.1209,-0.1218,-0.1244,-0.1246,-0.124,-0.1238,-0.1238,-0.1318,-0.132,-0.1314,-0.1306,-0.1306,-0.1306,-0.1307,-0.1307,-0.1155,-0.1165,-0.1144,-0.1136,-0.1131,-0.1094,-0.1152,-0.1133,-0.1149,-0.1125,-0.1196,-0.1199,-0.1192,-0.1197,-0.1188,-0.1148,-0.1148,-0.1148,-0.1148,-0.1114,-0.1123,-0.1077,-0.105,-0.1035,-0.1028,-0.095,-0.0935,-0.0985,-0.0996,-0.1002,-0.0993,-0.1003,-0.0985,-0.0995,-0.0983,-0.0889,-0.0889,-0.0888,-0.1066,-0.1064,-0.1011,-0.0998,-0.0976,-0.0933,-0.0811,-0.0693,-0.0733,-0.0878,-0.0962,-0.113,-0.1135,-0.1143,-0.1133,-0.1142,-0.1129,0,0]},{"header":{"parameterUnit":"m.s-1","parameterCategory":2,"la1":30.2992,"la2":30.254,"lo1":-89.0895,"lo2":-89.0443,"dy":0.0025,"dx":0.0025,"nx":19,"ny":19,"refTime":"2026-03-17T09:00:00:Z","depth":"2","parameterNumber":3,"parameterNumberName":"V-component_of_CURRENTS"},"data":[0,0,0,-0.0421,-0.0421,-0.0417,-0.0417,-0.0395,-0.0395,0,0,0,0,0,0,0,0,0,0,0,-0.0421,-0.0421,-0.0421,-0.0421,-0.0417,-0.0417,-0.0395,-0.0395,0,0,0,0,0,0,0,0,0,0,0,-0.0421,-0.0421,-0.0421,-0.0421,-0.0417,-0.0417,-0.0395,-0.0401,0,0,0,0,0,0,0,0,0,0,-0.0407,-0.0411,-0.0421,-0.0421,-0.0421,-0.0417,-0.0417,-0.0401,-0.04,-0.0394,0,-0.0397,0,-0.0398,-0.0393,-0.0393,0,0,0,-0.0415,-0.0411,-0.0412,-0.0421,-0.0422,-0.0417,-0.0417,-0.0401,-0.04,-0.0393,-0.0397,-0.0396,-0.0398,-0.0393,-0.0393,-0.0393,-0.0393,0,0,-0.0416,-0.0417,-0.0413,-0.0412,-0.0425,-0.0417,-0.0417,-0.04,-0.04,-0.0397,-0.0396,-0.0398,-0.0393,-0.0393,-0.0393,-0.0393,0,0,0,-0.042,-0.0417,-0.0418,-0.0412,-0.0415,-0.0417,-0.0417,-0.04,-0.0402,-0.0395,-0.0398,-0.0393,-0.0393,-0.0392,-0.0393,-0.0426,0,0,0,-0.042,-0.042,-0.0418,-0.0419,-0.0415,-0.041,-0.0418,-0.0403,-0.0401,-0.0398,-0.0393,-0.0393,-0.0392,-0.0393,-0.0425,-0.0442,0,0,0,-0.042,-0.042,-0.0422,-0.0419,-0.042,-0.041,-0.041,-0.0402,-0.0402,-0.0393,-0.0392,-0.0392,-0.0392,-0.0424,-0.044,-0.0448,0,0,0,-0.0419,-0.0429,-0.0422,-0.0435,-0.042,-0.043,-0.041,-0.0413,-0.0408,-0.0393,-0.0392,-0.0393,-0.0423,-0.0439,-0.0446,-0.0457,-0.0463,0,0,-0.0433,-0.0431,-0.044,-0.0433,-0.0452,-0.043,-0.0443,-0.0427,-0.0409,-0.0395,-0.0395,-0.0425,-0.044,-0.0447,-0.0476,-0.0482,0,0,0,-0.0445,-0.0453,-0.0457,-0.0466,-0.0466,-0.0467,-0.045,-0.044,-0.043,-0.0409,-0.0423,-0.0431,-0.0434,-0.0438,-0.0443,-0.0394,-0.0394,-0.0394,-0.0394,-0.0462,-0.0468,-0.0488,-0.0496,-0.05,-0.0492,-0.0489,-0.0471,-0.0451,-0.0451,-0.0456,-0.0482,-0.0487,-0.0491,-0.0452,-0.0452,-0.0452,-0.0452,-0.0452,-0.0492,-0.0508,-0.0514,-0.0536,-0.0535,-0.0541,-0.0525,-0.0511,-0.0503,-0.0482,-0.0484,-0.0471,-0.0498,-0.0455,-0.0454,-0.0454,-0.0454,-0.0454,-0.0453,-0.0511,-0.0521,-0.0533,-0.0562,-0.0577,-0.0573,-0.0583,-0.0563,-0.0535,-0.054,-0.053,-0.053,-0.0501,-0.0538,-0.0538,-0.0538,-0.0538,-0.0538,-0.0538,-0.0526,-0.0539,-0.0566,-0.0591,-0.0609,-0.0623,-0.0617,-0.0613,-0.0592,-0.0569,-0.0569,-0.0511,-0.0508,-0.0506,-0.054,-0.054,-0.0539,-0.0539,-0.0539,-0.0553,-0.0559,-0.0596,-0.062,-0.066,-0.0674,-0.0674,-0.0664,-0.0651,-0.0641,-0.0579,-0.0578,-0.0566,-0.0562,-0.056,-0.0606,-0.0606,-0.0606,-0.0606,-0.0568,-0.0575,-0.0623,-0.0663,-0.07,-0.07,-0.0696,-0.0638,-0.06,-0.0554,-0.0556,-0.0536,-0.0535,-0.052,-0.0516,-0.0513,-0.0547,-0.0546,-0.0546,-0.0583,-0.0596,-0.0632,-0.0673,-0.0719,-0.0719,-0.0681,-0.0543,-0.0458,-0.054,-0.0504,-0.061,-0.0586,-0.0583,-0.0561,-0.0555,-0.055,0,0]}],[{"header":{"parameterUnit":"m.s-1","parameterCategory":2,"la1":30.2992,"la2":30.254,"lo1":-89.0895,"lo2":-89.0443,"dy":0.0025,"dx":0.0025,"nx":19,"ny":19,"refTime":"2026-03-17T09:00:00:Z","depth":"4","parameterNumber":2,"parameterNumberName":"U-component_of_CURRENTS"},"data":[0,0,0,-0.0969,-0.097,-0.1032,-0.1033,-0.1101,-0.1101,0,0,0,0,0,0,0,0,0,0,0,-0.0951,-0.0952,-0.0969,-0.097,-0.1032,-0.1033,-0.1101,-0.1101,0,0,0,0,0,0,0,0,0,0,0,-0.0951,-0.0951,-0.0952,-0.097,-0.1032,-0.1033,-0.1101,-0.1058,0,0,0,0,0,0,0,0,0,0,-0.0999,-0.0986,-0.0951,-0.0952,-0.0971,-0.1032,-0.1033,-0.1056,-0.106,-0.1068,0,-0.1079,0,-0.1088,-0.1105,-0.1105,0,0,0,-0.0975,-0.0982,-0.0994,-0.0952,-0.0971,-0.1032,-0.1006,-0.1058,-0.1063,-0.1073,-0.108,-0.1083,-0.1089,-0.1105,-0.1106,-0.1156,-0.1156,0,0,-0.0971,-0.0967,-0.0991,-0.0997,-0.099,-0.1004,-0.1007,-0.1062,-0.107,-0.108,-0.1084,-0.109,-0.1106,-0.1106,-0.1156,-0.1156,0,0,0,-0.0958,-0.0965,-0.0976,-0.0995,-0.1005,-0.1005,-0.101,-0.1068,-0.1071,-0.1085,-0.1091,-0.1106,-0.1107,-0.1156,-0.1156,-0.1151,0,0,0,-0.0956,-0.0957,-0.0975,-0.0973,-0.1004,-0.104,-0.1015,-0.1067,-0.1074,-0.1091,-0.1106,-0.1107,-0.1156,-0.1156,-0.115,-0.1139,0,0,0,-0.0948,-0.0956,-0.0963,-0.0973,-0.0997,-0.1039,-0.1045,-0.1069,-0.1077,-0.1105,-0.1108,-0.1156,-0.1156,-0.115,-0.1139,-0.1133,0,0,0,-0.0941,-0.0951,-0.0963,-0.098,-0.0996,-0.1032,-0.1045,-0.108,-0.1105,-0.1106,-0.1156,-0.1156,-0.115,-0.1139,-0.1133,-0.1002,0,0,0,-0.0946,-0.0952,-0.0961,-0.0973,-0.0998,-0.1023,-0.1055,-0.1094,-0.1111,-0.1138,-0.1139,-0.115,-0.1139,-0.1133,-0.1021,0,0,0,0,-0.0957,-0.0962,-0.0974,-0.0994,-0.1022,-0.1048,-0.1086,-0.11,-0.1133,-0.1126,-0.1158,-0.1151,-0.1147,-0.1072,-0.1158,-0.1158,-0.1158,-0.1158,-0.1158,-0.0949,-0.0963,-0.0979,-0.1001,-0.1028,-0.1069,-0.109,-0.1117,-0.1138,-0.115,-0.1153,-0.1151,-0.1072,-0.1165,-0.1165,-0.1164,-0.1164,-0.1164,-0.1164,-0.0939,-0.094,-0.0972,-0.0992,-0.1026,-0.1057,-0.1097,-0.1115,-0.1138,-0.1153,-0.115,-0.1079,-0.1164,-0.1164,-0.1164,-0.1164,-0.1164,-0.1164,-0.1164,-0.0914,-0.0914,-0.094,-0.097,-0.1004,-0.1048,-0.1059,-0.1099,-0.1127,-0.1131,-0.1053,-0.1144,-0.1137,-0.1135,-0.1134,-0.1134,-0.1134,-0.1134,-0.1134,-0.087,-0.0893,-0.0905,-0.0944,-0.0962,-0.0992,-0.1041,-0.1044,-0.1082,-0.1025,-0.113,-0.1141,-0.1142,-0.1135,-0.1133,-0.1133,-0.1133,-0.1134,-0.1134,-0.0817,-0.0842,-0.0846,-0.0864,-0.0895,-0.0905,-0.0971,-0.0946,-0.0939,-0.0907,-0.0967,-0.0976,-0.0962,-0.0968,-0.0955,-0.0899,-0.0897,-0.0896,0,-0.0777,-0.0791,-0.0789,-0.0791,-0.0789,-0.0841,-0.0792,-0.0811,-0.0838,-0.0812,-0.0951,-0.102,-0.1025,-0.1014,-0.1016,-0.1001,0,0,0,-0.0737,-0.0744,-0.0723,-0.0739,-0.073,-0.0722,-0.0771,-0.0739,-0.084,-0.0785,-0.0852,-0.0864,-0.1034,-0.113,-0.113,-0.1131,-0.1121,0,0]},{"header":{"parameterUnit":"m.s-1","parameterCategory":2,"la1":30.2992,"la2":30.254,"lo1":-89.0895,"lo2":-89.0443,"dy":0.0025,"dx":0.0025,"nx":19,"ny":19,"refTime":"2026-03-17T09:00:00:Z","depth":"4","parameterNumber":3,"parameterNumberName":"V-component_of_CURRENTS"},"data":[0,0,0,-0.0199,-0.0199,-0.022,-0.022,-0.0235,-0.0235,0,0,0,0,0,0,0,0,0,0,0,-0.0192,-0.0192,-0.0199,-0.02,-0.022,-0.022,-0.0235,-0.0235,0,0,0,0,0,0,0,0,0,0,0,-0.0192,-0.0192,-0.0192,-0.02,-0.022,-0.022,-0.0235,-0.0221,0,0,0,0,0,0,0,0,0,0,-0.0202,-0.02,-0.0192,-0.0192,-0.02,-0.022,-0.022,-0.0221,-0.0222,-0.0223,0,-0.0229,0,-0.0234,-0.0236,-0.0236,0,0,0,-0.0197,-0.0199,-0.0204,-0.0192,-0.02,-0.022,-0.021,-0.0222,-0.0223,-0.0225,-0.0229,-0.023,-0.0234,-0.0236,-0.0236,-0.027,-0.027,0,0,-0.0196,-0.0195,-0.0203,-0.0205,-0.0209,-0.021,-0.0211,-0.0223,-0.0226,-0.0229,-0.023,-0.0234,-0.0236,-0.0236,-0.0269,-0.027,0,0,0,-0.0194,-0.0194,-0.0199,-0.0204,-0.021,-0.021,-0.0212,-0.0225,-0.0227,-0.0231,-0.0234,-0.0236,-0.0236,-0.0269,-0.027,-0.0295,0,0,0,-0.0193,-0.0194,-0.0199,-0.0199,-0.021,-0.022,-0.0214,-0.0226,-0.0228,-0.0234,-0.0236,-0.0237,-0.0269,-0.0269,-0.0294,-0.0302,0,0,0,-0.019,-0.0193,-0.0197,-0.0199,-0.0209,-0.022,-0.0222,-0.0227,-0.023,-0.0236,-0.0237,-0.0269,-0.0269,-0.0293,-0.03,-0.0297,0,0,0,-0.0187,-0.0201,-0.0197,-0.0218,-0.0209,-0.0237,-0.0222,-0.0242,-0.0251,-0.0236,-0.0269,-0.027,-0.0293,-0.0299,-0.0296,-0.0261,0,0,0,-0.0204,-0.0203,-0.0217,-0.0214,-0.0245,-0.0233,-0.0264,-0.0266,-0.0259,-0.0263,-0.0264,-0.0295,-0.03,-0.0297,-0.0298,0,0,0,0,-0.0222,-0.0232,-0.0242,-0.0259,-0.0272,-0.0284,-0.0287,-0.0284,-0.0292,-0.0267,-0.03,-0.0303,-0.03,-0.0277,-0.0273,-0.0272,-0.0272,-0.0272,-0.0272,-0.0238,-0.0251,-0.0278,-0.0295,-0.0311,-0.0322,-0.0328,-0.0324,-0.0318,-0.0325,-0.0328,-0.035,-0.0328,-0.0334,-0.0335,-0.0335,-0.0335,-0.0335,-0.0335,-0.0266,-0.0283,-0.0302,-0.0333,-0.0345,-0.0368,-0.0369,-0.0363,-0.0364,-0.0356,-0.0351,-0.0312,-0.0338,-0.0337,-0.0337,-0.0336,-0.0336,-0.0336,-0.0336,-0.0275,-0.0285,-0.0308,-0.035,-0.0379,-0.0394,-0.0405,-0.0402,-0.0386,-0.0389,-0.0351,-0.0362,-0.0353,-0.0385,-0.0385,-0.0385,-0.0385,-0.0385,-0.0385,-0.027,-0.0294,-0.0325,-0.0367,-0.0394,-0.0417,-0.0428,-0.0419,-0.0406,-0.0375,-0.0394,-0.0366,-0.0364,-0.0356,-0.0386,-0.0386,-0.0386,-0.0386,-0.0386,-0.0278,-0.029,-0.033,-0.0361,-0.0416,-0.0427,-0.0443,-0.0409,-0.0395,-0.0364,-0.0359,-0.036,-0.0342,-0.0341,-0.033,-0.0354,-0.0354,-0.0353,0,-0.0275,-0.0286,-0.0334,-0.0376,-0.0409,-0.043,-0.0408,-0.0394,-0.0364,-0.0355,-0.0392,-0.0388,-0.0388,-0.0369,-0.0368,-0.0357,0,0,0,-0.0277,-0.029,-0.0319,-0.0365,-0.0406,-0.0392,-0.0397,-0.0377,-0.0373,-0.0342,-0.0344,-0.0347,-0.0383,-0.0388,-0.0362,-0.0361,-0.0345,0,0]}]]